Regional Weather Roundup
Issued by NWS

Home | Current Version | Previous Version | Text Only | Print | Product List | Glossary On
Versions: 1 2 3 4 5 6 7 8 9 10 11 12 13 14 15 16 17 18 19 20 21 22 23 24 25 26 27 28 29 30 31 32 33 34 35 36 37 38 39 40 41 42 43 44 45 46 47 48 49 50
000
ASUS43 KMKX 292300
RWRWI

WISCONSIN REGIONAL WEATHER ROUNDUP
NATIONAL WEATHER SERVICE MILWAUKEE/SULLIVAN WI
600 PM CDT WED OCT 29 2014

NOTE: "FAIR" INDICATES FEW OR NO CLOUDS BELOW 12,000 FEET WITH NO
SIGNIFICANT WEATHER AND/OR OBSTRUCTIONS TO VISIBILITY.

WIZ001-002-006>008-014>016-023>028-300000-
NORTHWEST WISCONSIN

CITY           SKY/WX    TMP DP  RH WIND       PRES   REMARKS
SUPERIOR ARPT  CLOUDY    42  34  73 SW8       30.07F
ASHLAND        CLOUDY    41  33  73 SW6       30.08S
HAYWARD        CLOUDY    40  33  76 SW7       30.08S
SIREN          CLOUDY    40  32  74 W7        30.09S WCI  35
CUMBERLAND     CLOUDY    39  32  75 W6        30.08S WCI  35
RICE LAKE      CLOUDY    42  32  68 W6        30.10S
CHETEK         CLOUDY    42  33  70 SW3       30.09S
LADYSMITH      CLOUDY    41  33  73 W7        30.10S
EAU CLAIRE     NOT AVBL
MENOMONIE      CLOUDY    44  32  62 CALM      30.10S
NEW RICHMOND   CLOUDY    40  31  70 W5        30.10F
OSCEOLA        CLOUDY    40  32  73 W6        30.13S
$$

WIZ003>005-009-010-017-018-300000-
NORTH CENTRAL WISCONSIN

CITY           SKY/WX    TMP DP  RH WIND       PRES   REMARKS
MANITOWISH WTR CLOUDY    39  33  77 CALM      30.04F
ARBOR VITAE    CLOUDY    42  35  76 CALM      30.04F
WOODRUFF       CLOUDY    42  35  76 CALM      30.04F
RHINELANDER    CLOUDY    40  32  73 NW5       30.06F
EAGLE RIVER    CLOUDY    38  31  77 W5        30.05F WCI  35
LAND O LAKES   CLOUDY    38  35  92 CALM      30.05F
PHILLIPS       CLOUDY    39  32  75 W5        30.05F
TOMAHAWK       CLOUDY    41  32  70 CALM      30.06F
MEDFORD        MOCLDY    40  32  74 W6        30.07S
MERRILL        CLOUDY    43  33  67 CALM      30.07S
$$

WIZ029-030-035-036-043>047-300000-
CENTRAL WISCONSIN

CITY           SKY/WX    TMP DP  RH WIND       PRES   REMARKS
WAUSAU         CLOUDY    43  32  65 NW7       30.06F
MOSINEE        MOCLDY    43  34  70 NW7       30.09S
MARSHFIELD     CLEAR     40  33  76 NW6       30.08S
STEVENS POINT  MOCLDY    42  31  67 W6        30.09S
WAUPACA        MOCLDY    47  33  58 NW8       30.09R
WAUTOMA        NOT AVBL
WISC RAPIDS    CLEAR     43  31  62 NW3       30.10S
CAMP DOUGLAS   NOT AVBL
$$

WIZ011>013-019>022-031-037>040-048>050-300000-
NORTHEAST WISCONSIN

CITY           SKY/WX    TMP DP  RH WIND       PRES   REMARKS
ANTIGO         CLOUDY    40  33  76 NW9       30.07S WCI  33
SHAWANO        MOCLDY    47  34  60 NW3       30.08R
OCONTO         CLOUDY    47  34  59 NW5       30.06R
STURGEON BAY   CLOUDY    46  32  57 NW7       30.07R
GREEN BAY      CLOUDY    47  35  63 W9        30.08R
MANITOWOC      NOT AVBL
APPLETON       MOCLDY    45  32  61 W8        30.09R
CLINTONVILLE   CLOUDY    45  32  61 W6        30.08R
OSHKOSH        CLOUDY    45  34  65 NW6       30.09R
$$

WIZ032>034-041-042-053>061-300000-
SOUTHWEST WISCONSIN

CITY           SKY/WX    TMP DP  RH WIND       PRES   REMARKS
LA CROSSE      CLEAR     44  32  62 W5        30.11F
SPARTA         CLEAR     45  31  59 W3        30.11S
VIROQUA        PTCLDY    42  32  67 W5        30.10S
BOSCOBEL       CLEAR     46  32  58 W5        30.13S
PRAIRIE DU CHI CLEAR     47  31  53 W6        30.12S
PLATTEVILLE    CLEAR     44  32  62 W8        30.13S
$$

WIZ056-057-062-063-064-067-068-300000-
SOUTH CENTRAL WISCONSIN

CITY           SKY/WX    TMP DP  RH WIND       PRES   REMARKS
REEDSBURG      CLEAR     44  32  63 NW6       30.10S
BARABOO/DELLS  PTCLDY    44  31  60 W5        30.09F
LONE ROCK      NOT AVBL
MINERAL POINT  CLEAR     45  32  61 W6        30.11S
MADISON        PTCLDY    45  31  58 NW3       30.11R
MIDDLETON      CLEAR     47  31  53 NW5       30.10S
WATERTOWN      CLEAR     44  32  61 W3        30.09S
MONROE         CLEAR     45  32  61 W8        30.10S
JANESVILLE     PTCLDY    46  30  53 W6        30.10S
$$

WIZ051-052-058>065-066-070>072-300000-
SOUTHEAST WISCONSIN

CITY           SKY/WX    TMP DP  RH WIND       PRES   REMARKS
MILWAUKEE      MOCLDY    47  31  53 NW9       30.11R
WAUKESHA       MOCLDY    45  30  57 NW7       30.11R
MILWAUKEE/TIMM CLOUDY    45  30  57 NW6       30.11R
RACINE         CLOUDY    47  30  51 NW6       30.12R
BURLINGTON     CLEAR     43  30  59 NW5       30.10S
KENOSHA        MOCLDY    46  31  55 NW6       30.11R
FOND DU LAC    CLOUDY    45  32  60 NW8       30.09S
SHEBOYGAN      CLOUDY    45  33  63 W6        30.09R
WEST BEND      CLOUDY    43  30  61 NW9       30.09S
JUNEAU         CLEAR     44  32  63 NW3       30.10S
$$

LSZ147-162-300000-
LAKE SUPERIOR

STATION/POSITION TIME  TEMP    WIND        PRES    WAVE
                       AIR SEA DIR/SP/G            HT/PER
                 (UTC) (F)     (DEG/KT/KT) (MB)    (FT/S)
W MID LAKE BUOY  2150   43 45  260/ 12/ 14 1017.8F   2/ 3
DEVILS ISLAND    2200   43     240/ 15/ 17 1018.2F
PORT WING        2240   43     210/  5/  8 1018.3F
SAXON HARBOR     2200   45     300/  5/  7 1018.3S
$$

LMZ867-665-643>646-300000-
LAKE MICHIGAN

STATION/POSITION TIME  TEMP    WIND        PRES    WAVE
                       AIR SEA DIR/SP/G            HT/PER
                 (UTC) (F)     (DEG/KT/KT) (MB)    (FT/S)
CHAMBERS ISLAND  2200   48     310/  6/  9 1017.3S
N MID LAKE BUOY  2150   45 51  330/ 12/ 14 1017.2R   3/ 4
NORTHPORT PIER   2200   47     320/ 12/ 14 1017.3R
KEWAUNEE LAKESHO 2206   48     270/  5/  7 1016.7R
SHEBOYGAN LAKESH 2200   47 50  300/ 10/ 13 1019.1R
PORT WASHINGTON  2200   48     290/  8/ 14 1019.3R
ATWATER BUOY     2200   48     280/ 12/ 14 1019.9R
MILWAUKEE LAKESH 2200   47     300/  7/ 12   N/A
S MID LAKE BUOY  2150   47 53  300/ 12/ 16 1019.1R   3/ 6
KENOSHA   LAKESH 2200   48     320/ 10/ 13 1019.0R
$$

TC  - TEMPERATURE IN CELSIUS
VSB - VISIBILITY IN STATUTE MILES
WCI - WIND CHILL INDEX
HX  - HEAT INDEX




USA.gov is the U.S. government's official web portal to all federal, state and local government web resources and services.